Flag for Germany Weather past 2 weeks in Koblenz, Rhineland-Palatinate, Germany

Now
77 °F

Pleasantly warm.


Feels Like: 78 °F
Forecast: 60 / 89 °F
Wind: 6 mph from Northeast

Location: Buechel

Current Time: Jun 30, 2015 at 4:31:19 PM

Latest Report: Jun 30, 2015 at 3:20 PM


Visibility: N/A

Pressure: 30.18 "Hg

Humidity: 34%

Dew point: 46 °F

Location of KoblenzLocation

Historic Weather in Koblenz — Graph

°F

Koblenz temperature yesterday

Maximum temperature yesterday: 77 °F (at 4:20 PM)
Minimum temperature yesterday: 61 °F (at 5:20 AM)
Average temperature yesterday: 68 °F

Past Weeks' High & Low Weather Summary

 TemperatureHumidityPressure
High77 °F (Jun 29, 4:20 PM)100% (Jun 18, 6:20 AM)30.27 "Hg (Jun 18, 6:20 AM)
Low43 °F (Jun 23, 2:20 AM)30% (Jun 29, 4:20 PM)29.68 "Hg (Jun 22, 9:20 PM)
Average58 °F70%30.11 "Hg
* Reported Jun 15 2:20 PM — Jun 30 2:20 PM, Koblenz, Weather by CustomWeather, © 2015

Note: Actual official high and low records may vary slightly from our data, if they occured in-between our weather recording intervals... More about our weather records

Advertising

Koblenz weather history for previous 24 hours

 ConditionsComfort  
Time TempWeatherWind HumidityBarometerVisibility
2:20 PM
Tue, Jun 30
77 °FPleasantly warm.6 mph34%30.18 "HgN/A
1:20 PM73 °FMild.7 mph38%30.21 "HgN/A
12:20 PM72 °FMild.7 mph41%30.21 "HgN/A
11:20 AM70 °FMild.9 mph50%30.21 "HgN/A
10:20 AM70 °FMild.8 mph50%30.21 "HgN/A
9:20 AM68 °FMild.8 mph56%30.21 "HgN/A
8:20 AM66 °FMild.6 mph60%30.21 "HgN/A
7:20 AM63 °FMild.6 mph64%30.21 "HgN/A
6:20 AM61 °FCool.6 mph68%30.21 "HgN/A
5:20 AM59 °FPassing clouds.7 mph72%30.18 "HgN/A
4:20 AM59 °FPassing clouds.5 mph72%30.21 "HgN/A
3:20 AM61 °FCool.5 mph68%30.21 "Hg4 mi
2:20 AM63 °FMild.6 mph64%30.21 "Hg4 mi
1:20 AM63 °FMild.5 mph64%30.21 "Hg4 mi
12:20 AM64 °FMild.5 mph60%30.21 "Hg4 mi
11:20 PM
Mon, Jun 29
64 °FMild.5 mph60%30.24 "Hg6 mi
10:20 PM66 °FMild.6 mph56%30.21 "Hg4 mi
9:20 PM68 °FBroken clouds.6 mph56%30.21 "HgN/A
8:20 PM70 °FBroken clouds.8 mph53%30.21 "HgN/A
7:20 PM72 °FBroken clouds.8 mph50%30.18 "HgN/A
6:20 PM75 °FBroken clouds.8 mph47%30.18 "HgN/A
5:20 PM75 °FBroken clouds.7 mph50%30.18 "HgN/A
4:20 PM77 °FBroken clouds.6 mph30%30.18 "HgN/A
Weather by CustomWeather, © 2015

See weather overviewHow to use our weather pages